�N����,����,�~����,�C��,���x,�C��,����,���ϕ���,�ő�u�ԕ���,�ő厞����,���˗�,�I�_���x,�n�����x,�ő啗���N��,DTYPE
"17/12/17","00:10",0.0,5.0,60.2,1011.4,291.8,2.5,4.4,255.8,0.00,-2.0,7.1,"00:06:10",1
"17/12/17","00:20",0.0,5.0,60.6,1011.2,314.0,3.9,9.6,345.5,0.00,-1.9,7.0,"00:19:30",1
"17/12/17","00:30",0.0,4.9,59.2,1011.4,295.2,4.1,6.5,338.7,0.00,-2.3,7.0,"00:20:08",1
"17/12/17","00:40",0.0,4.7,59.8,1011.2,307.7,3.1,6.7,329.5,0.00,-2.4,6.9,"00:37:36",1
"17/12/17","00:50",0.0,4.7,56.9,1011.2,298.5,3.2,6.7,327.8,0.00,-3.1,6.9,"00:42:32",1
"17/12/17","01:00",0.0,4.6,55.2,1010.9,311.7,3.7,6.4,332.4,0.00,-3.6,7.0,"00:51:36",1
"17/12/17","01:10",0.0,4.5,53.6,1010.9,309.5,4.5,8.6,330.4,0.00,-4.1,6.6,"01:07:36",1
"17/12/17","01:20",0.0,4.3,54.7,1010.9,302.2,3.7,6.4,338.1,0.00,-4.0,6.7,"01:11:52",1
"17/12/17","01:30",0.0,4.1,58.0,1011.4,299.2,3.6,6.4,333.9,0.00,-3.4,6.6,"01:27:14",1
"17/12/17","01:40",0.0,3.9,59.9,1010.9,313.0,3.9,7.5,301.7,0.00,-3.1,6.7,"01:34:16",1
"17/12/17","01:50",0.0,3.7,60.7,1011.2,309.8,3.6,7.3,332.1,0.00,-3.1,6.6,"01:47:06",1
"17/12/17","02:00",0.0,3.5,61.7,1011.4,302.7,3.2,7.1,341.8,0.00,-3.1,6.4,"01:51:52",1
"17/12/17","02:10",0.0,3.3,62.8,1011.2,305.7,3.2,6.4,336.8,0.00,-3.1,6.5,"02:01:12",1
"17/12/17","02:20",0.0,3.2,63.6,1011.4,314.9,3.2,6.8,316.5,0.00,-3.0,6.3,"02:17:46",1
"17/12/17","02:30",0.0,3.2,63.2,1010.9,303.3,3.5,7.4,331.7,0.00,-3.1,6.1,"02:20:08",1
"17/12/17","02:40",0.0,3.1,64.1,1010.9,293.5,3.2,5.5,303.3,0.00,-3.0,6.3,"02:33:44",1
"17/12/17","02:50",0.0,3.0,63.7,1010.9,289.1,3.1,7.5,340.1,0.00,-3.2,6.2,"02:46:06",1
"17/12/17","03:00",0.0,2.8,65.4,1011.2,292.8,2.8,5.1,323.4,0.00,-3.0,5.9,"02:50:56",1
"17/12/17","03:10",0.0,3.1,63.8,1011.2,314.7,4.7,9.6,321.3,0.00,-3.0,6.3,"03:08:38",1
"17/12/17","03:20",0.0,2.8,64.8,1010.7,297.1,3.2,5.7,302.2,0.00,-3.1,5.9,"03:10:26",1
"17/12/17","03:30",0.0,2.6,66.7,1010.9,306.5,3.9,7.2,323.4,0.00,-2.9,6.1,"03:20:44",1
"17/12/17","03:40",0.0,2.4,67.4,1011.2,302.1,3.4,6.3,337.5,0.00,-3.0,5.9,"03:30:32",1
"17/12/17","03:50",0.0,2.7,64.3,1011.2,302.9,4.1,7.9,326.0,0.00,-3.3,5.8,"03:46:54",1
"17/12/17","04:00",0.0,2.5,65.8,1010.9,295.0,3.5,6.7,307.7,0.00,-3.2,5.8,"03:57:56",1
"17/12/17","04:10",0.0,2.3,66.1,1010.9,292.6,3.2,6.7,281.0,0.00,-3.3,5.7,"04:08:34",1
"17/12/17","04:20",0.0,2.2,66.2,1011.4,298.0,3.4,6.4,315.3,0.00,-3.4,5.9,"04:15:06",1
"17/12/17","04:30",0.0,2.2,66.9,1011.4,293.1,3.4,6.2,266.3,0.00,-3.3,5.9,"04:28:36",1
"17/12/17","04:40",0.0,2.0,67.2,1011.6,299.5,3.2,6.4,317.7,0.00,-3.4,5.7,"04:38:20",1
"17/12/17","04:50",0.0,2.0,66.3,1011.6,289.4,3.4,7.5,285.3,0.00,-3.6,5.6,"04:48:26",1
"17/12/17","05:00",0.0,1.7,66.7,1010.9,289.5,2.6,5.5,338.7,0.00,-3.8,5.4,"04:50:38",1
"17/12/17","05:10",0.0,1.5,68.2,1011.4,282.8,2.1,2.9,305.2,0.00,-3.7,5.5,"05:03:30",1
"17/12/17","05:20",0.0,1.3,69.1,1011.6,292.9,2.1,5.1,315.9,0.00,-3.7,5.6,"05:10:24",1
"17/12/17","05:30",0.0,1.4,69.9,1011.6,281.5,2.5,3.6,300.2,0.00,-3.4,5.6,"05:29:24",1
"17/12/17","05:40",0.0,1.4,69.1,1011.4,281.9,2.5,4.4,317.4,0.00,-3.6,5.4,"05:32:48",1
"17/12/17","05:50",0.0,1.4,69.2,1011.9,278.3,2.5,4.0,265.6,0.00,-3.6,5.4,"05:45:16",1
"17/12/17","06:00",0.0,1.4,68.8,1012.1,280.8,2.3,3.7,289.7,0.00,-3.7,5.3,"05:58:44",1
"17/12/17","06:10",0.0,1.4,68.7,1012.1,285.3,3.0,4.8,316.9,0.00,-3.7,5.4,"06:08:00",1
"17/12/17","06:20",0.0,1.2,69.9,1012.1,286.8,2.3,3.4,271.9,0.00,-3.6,5.3,"06:16:48",1
"17/12/17","06:30",0.0,1.1,70.6,1012.1,278.4,2.6,4.7,310.9,0.00,-3.6,5.2,"06:27:50",1
"17/12/17","06:40",0.0,1.3,70.8,1012.3,282.6,2.5,4.3,286.1,0.00,-3.4,5.2,"06:36:18",1
"17/12/17","06:50",0.0,1.4,69.5,1012.1,288.3,2.6,5.6,322.6,0.00,-3.5,5.2,"06:42:50",1
"17/12/17","07:00",0.0,1.4,69.5,1012.3,280.9,2.5,3.5,301.1,0.00,-3.5,5.0,"06:59:06",1
"17/12/17","07:10",0.0,1.3,69.9,1012.8,292.3,2.2,5.1,347.0,0.00,-3.5,5.2,"07:08:26",1
"17/12/17","07:20",0.0,1.4,70.4,1012.8,287.5,2.7,5.2,313.0,0.00,-3.4,5.1,"07:18:00",1
"17/12/17","07:30",0.0,1.3,71.2,1012.8,274.2,2.5,4.2,271.3,0.00,-3.3,5.2,"07:26:52",1
"17/12/17","07:40",0.0,1.3,72.0,1012.6,280.9,2.3,4.9,313.8,0.00,-3.1,5.1,"07:36:42",1
"17/12/17","07:50",0.0,1.7,71.6,1012.8,273.5,2.3,4.1,236.4,0.00,-2.8,5.3,"07:48:10",1
"17/12/17","08:00",0.0,1.7,71.2,1013.5,277.9,1.7,3.2,315.9,0.00,-2.9,5.1,"07:56:48",1
"17/12/17","08:10",0.0,1.5,72.7,1013.3,263.8,2.2,4.4,245.7,0.00,-2.8,5.2,"08:04:52",1
"17/12/17","08:20",0.0,1.8,72.1,1013.3,262.9,1.5,2.9,227.7,0.02,-2.6,5.3,"08:19:04",1
"17/12/17","08:30",0.0,2.1,71.1,1013.8,267.4,1.8,3.2,260.4,0.05,-2.5,5.4,"08:27:20",1
"17/12/17","08:40",0.0,2.1,71.5,1013.8,274.4,2.1,3.5,303.6,0.03,-2.5,5.2,"08:34:16",1
"17/12/17","08:50",0.0,2.4,70.5,1013.5,264.0,2.3,3.9,229.4,0.08,-2.4,5.4,"08:47:28",1
"17/12/17","09:00",0.0,2.5,69.6,1014.0,249.5,2.3,4.0,309.4,0.07,-2.4,5.3,"08:53:38",1
"17/12/17","09:10",0.0,2.9,69.3,1014.0,254.7,2.6,5.0,243.9,0.07,-2.1,5.5,"09:00:40",1
"17/12/17","09:20",0.0,2.8,68.7,1014.2,271.3,2.1,4.9,236.4,0.05,-2.3,5.3,"09:18:00",1
"17/12/17","09:30",0.0,3.5,65.7,1014.2,275.5,1.6,3.7,300.3,0.16,-2.3,5.5,"09:25:00",1
"17/12/17","09:40",0.0,3.5,67.0,1014.5,250.6,2.1,4.2,203.4,0.11,-2.0,5.5,"09:31:20",1
"17/12/17","09:50",0.0,3.6,65.2,1014.9,254.4,1.1,2.2,242.4,0.04,-2.3,5.6,"09:45:14",1
"17/12/17","10:00",0.0,3.6,65.8,1014.5,296.2,2.3,5.6,321.7,0.04,-2.2,5.7,"09:53:44",1
"17/12/17","10:10",0.0,3.6,65.6,1014.7,306.5,3.1,5.1,294.1,0.04,-2.2,5.8,"10:04:48",1
"17/12/17","10:20",0.0,3.8,64.9,1014.5,298.1,3.4,7.0,337.7,0.05,-2.1,5.6,"10:19:28",1
"17/12/17","10:30",0.0,4.0,65.6,1014.5,299.6,4.2,7.4,212.5,0.10,-1.8,5.6,"10:25:54",1
"17/12/17","10:40",0.0,3.8,68.0,1014.5,311.8,5.2,10.9,336.0,0.11,-1.5,5.8,"10:34:48",1
"17/12/17","10:50",0.0,4.6,67.8,1014.2,319.7,4.9,10.3,309.6,0.27,-0.8,5.7,"10:42:02",1
"17/12/17","11:00",0.0,5.1,65.9,1014.5,307.2,3.1,7.2,342.9,0.31,-0.7,6.2,"10:52:30",1
"17/12/17","11:10",0.0,5.3,61.6,1014.7,300.8,3.1,5.1,0.3,0.35,-1.4,6.3,"11:09:50",1
"17/12/17","11:20",0.0,5.8,60.0,1014.5,308.8,4.0,7.7,345.3,0.40,-1.3,6.2,"11:13:56",1
"17/12/17","11:30",0.0,5.5,61.8,1014.5,294.1,3.9,7.5,332.9,0.39,-1.2,6.4,"11:27:54",1
"17/12/17","11:40",0.0,5.7,59.8,1014.5,320.5,4.5,10.4,314.8,0.41,-1.5,6.7,"11:34:20",1
"17/12/17","11:50",0.0,5.9,60.4,1014.2,297.7,4.0,7.8,331.0,0.36,-1.1,6.7,"11:44:12",1
"17/12/17","12:00",0.0,5.4,59.5,1014.2,300.6,3.7,9.4,344.9,0.33,-1.8,6.9,"11:58:40",1
"17/12/17","12:10",0.0,6.3,58.0,1014.0,298.2,3.6,9.4,344.7,0.41,-1.3,7.2,"12:05:22",1
"17/12/17","12:20",0.0,6.4,58.7,1014.7,277.9,3.9,10.0,348.9,0.38,-1.1,7.2,"12:15:34",1
"17/12/17","12:30",0.0,5.8,60.7,1014.2,272.4,3.1,5.8,323.3,0.23,-1.2,7.3,"12:24:28",1
"17/12/17","12:40",0.0,5.8,61.0,1014.0,285.2,4.2,6.8,317.7,0.20,-1.1,7.1,"12:34:36",1
"17/12/17","12:50",0.0,6.0,60.3,1014.2,291.2,3.5,7.4,313.3,0.24,-1.1,7.3,"12:40:16",1
"17/12/17","13:00",0.0,6.0,60.3,1013.8,315.5,2.7,6.2,338.5,0.20,-1.1,7.4,"12:59:10",1
"17/12/17","13:10",0.0,6.0,60.1,1014.0,320.9,3.4,8.3,330.9,0.19,-1.1,7.4,"13:03:20",1
"17/12/17","13:20",0.0,6.3,60.6,1013.8,288.2,2.7,5.6,317.0,0.22,-0.7,7.4,"13:15:24",1
"17/12/17","13:30",0.0,6.3,59.7,1014.0,306.8,3.4,7.5,319.2,0.33,-0.9,7.5,"13:28:20",1
"17/12/17","13:40",0.0,6.8,60.9,1014.0,310.3,4.2,8.5,343.4,0.37,-0.2,7.6,"13:33:50",1
"17/12/17","13:50",0.0,6.6,59.9,1013.8,289.6,3.5,5.7,347.6,0.30,-0.6,7.7,"13:47:58",1
"17/12/17","14:00",0.0,6.4,61.3,1014.2,316.7,3.2,7.2,342.4,0.22,-0.5,7.7,"13:54:22",1
"17/12/17","14:10",0.0,5.9,62.8,1014.0,339.9,3.9,6.5,323.5,0.09,-0.6,7.7,"14:04:16",1
"17/12/17","14:20",0.0,5.3,65.9,1014.0,338.1,4.0,8.3,343.5,0.06,-0.5,7.7,"14:12:58",1
"17/12/17","14:30",0.0,6.0,63.1,1013.8,328.1,3.4,7.1,314.9,0.20,-0.4,7.7,"14:28:56",1
"17/12/17","14:40",0.0,6.5,60.5,1014.5,334.8,3.7,7.9,341.1,0.26,-0.5,7.9,"14:38:52",1
"17/12/17","14:50",0.0,6.4,61.8,1014.5,344.8,3.1,5.8,25.4,0.23,-0.3,7.9,"14:44:48",1
"17/12/17","15:00",0.0,6.0,62.7,1014.5,331.9,3.9,6.4,326.3,0.13,-0.5,7.9,"14:54:00",1
"17/12/17","15:10",0.0,5.8,62.7,1014.9,344.7,2.7,5.7,331.8,0.15,-0.7,7.7,"15:01:12",1
"17/12/17","15:20",0.0,6.2,61.5,1014.9,349.4,2.3,6.4,342.8,0.07,-0.6,7.6,"15:19:28",1
"17/12/17","15:30",0.0,5.7,63.4,1014.5,324.3,3.0,6.5,345.2,0.02,-0.7,7.7,"15:27:28",1
"17/12/17","15:40",0.0,5.3,65.2,1014.7,337.3,3.4,6.4,343.2,0.02,-0.7,7.7,"15:38:32",1
"17/12/17","15:50",0.0,5.1,65.9,1014.7,312.4,3.2,6.0,322.8,0.01,-0.7,7.6,"15:40:16",1
"17/12/17","16:00",0.0,4.8,67.3,1014.7,290.0,2.7,5.7,311.4,0.01,-0.7,7.6,"15:50:56",1
"17/12/17","16:10",0.0,4.8,68.6,1014.9,290.6,2.8,4.7,328.9,0.01,-0.4,7.6,"16:07:08",1
"17/12/17","16:20",0.0,4.8,68.7,1014.7,328.9,2.2,5.0,337.6,0.00,-0.4,7.3,"16:10:32",1
"17/12/17","16:30",0.0,4.6,69.4,1014.7,337.7,2.3,4.8,328.7,0.00,-0.5,7.5,"16:29:26",1
"17/12/17","16:40",0.0,4.4,69.3,1014.5,331.4,2.7,4.9,340.3,0.00,-0.7,7.6,"16:37:52",1
"17/12/17","16:50",0.0,4.3,69.1,1014.7,341.6,2.6,4.9,353.2,0.00,-0.8,7.3,"16:42:24",1
"17/12/17","17:00",0.0,4.0,70.1,1014.7,342.6,1.6,2.9,326.8,0.00,-0.9,7.3,"16:51:20",1
"17/12/17","17:10",0.0,3.5,72.0,1014.7,318.6,1.8,4.7,349.4,0.00,-1.0,7.2,"17:09:44",1
"17/12/17","17:20",0.0,3.5,71.4,1014.7,315.1,2.3,4.7,325.0,0.00,-1.1,7.1,"17:12:08",1
"17/12/17","17:30",0.0,3.4,72.9,1014.9,296.9,2.2,4.3,304.7,0.00,-1.0,7.1,"17:24:08",1
"17/12/17","17:40",0.0,3.4,73.0,1014.9,303.5,1.8,3.6,324.4,0.00,-0.9,7.1,"17:39:12",1
"17/12/17","17:50",0.0,3.1,73.3,1015.2,327.8,1.7,3.1,340.7,0.00,-1.2,6.9,"17:41:12",1
"17/12/17","18:00",0.0,2.3,75.8,1015.2,307.9,2.0,2.9,320.9,0.00,-1.5,6.6,"17:50:08",1
"17/12/17","18:10",0.0,2.1,78.7,1015.4,297.8,2.0,3.2,318.5,0.00,-1.2,6.7,"18:09:12",1
"17/12/17","18:20",0.0,1.9,79.3,1015.2,313.2,2.2,3.5,316.2,0.00,-1.3,6.5,"18:17:52",1
"17/12/17","18:30",0.0,1.4,82.6,1015.2,302.1,2.0,3.1,322.4,0.00,-1.2,6.5,"18:24:08",1
"17/12/17","18:40",0.0,1.5,82.1,1014.7,305.4,2.0,3.1,319.2,0.00,-1.2,6.6,"18:31:28",1
"17/12/17","18:50",0.0,1.6,83.0,1014.7,291.9,1.7,3.4,324.6,0.00,-0.9,6.5,"18:47:52",1
"17/12/17","19:00",0.0,1.3,82.0,1014.9,312.2,1.7,3.2,329.9,0.00,-1.4,6.2,"18:51:04",1
"17/12/17","19:10",0.0,0.7,83.5,1015.2,292.9,1.0,1.8,281.0,0.00,-1.7,6.1,"19:03:36",1
"17/12/17","19:20",0.0,0.9,84.4,1015.2,285.5,0.6,1.4,278.4,0.00,-1.4,5.9,"19:10:02",1
"17/12/17","19:30",0.0,0.8,85.4,1015.2,311.3,1.7,2.7,328.6,0.00,-1.3,6.1,"19:27:04",1
"17/12/17","19:40",0.0,0.4,85.6,1015.2,313.3,1.6,2.6,343.2,0.00,-1.7,5.9,"19:32:08",1
"17/12/17","19:50",0.0,0.3,87.3,1015.4,326.9,1.8,2.5,328.1,0.00,-1.5,5.9,"19:42:24",1
"17/12/17","20:00",0.0,0.4,88.9,1015.4,323.9,2.0,3.2,324.0,0.00,-1.2,5.9,"19:55:28",1
"17/12/17","20:10",0.0,0.4,89.4,1014.9,299.5,1.3,2.0,314.9,0.00,-1.1,5.7,"20:01:36",1
"17/12/17","20:20",0.0,0.2,89.7,1015.2,291.5,1.1,2.1,320.6,0.00,-1.2,5.6,"20:19:28",1
"17/12/17","20:30",0.0,0.3,91.0,1015.2,341.6,1.0,2.6,336.1,0.00,-1.0,5.8,"20:24:08",1
"17/12/17","20:40",0.0,0.3,90.7,1015.4,317.2,1.2,3.1,342.8,0.00,-1.0,5.8,"20:34:32",1
"17/12/17","20:50",0.0,0.1,90.2,1015.9,298.0,1.3,2.2,340.6,0.00,-1.3,5.7,"20:43:44",1
"17/12/17","21:00",0.0,0.3,91.9,1015.9,302.2,1.5,3.4,319.6,0.00,-0.8,5.7,"20:55:12",1
"17/12/17","21:10",0.0,0.6,90.5,1015.9,293.1,1.7,2.5,322.1,0.00,-0.7,5.6,"21:06:40",1
"17/12/17","21:20",0.0,0.5,89.7,1016.4,305.6,1.7,2.4,325.6,0.00,-1.0,5.6,"21:13:52",1
"17/12/17","21:30",0.0,0.5,89.4,1016.1,309.5,1.6,2.1,328.8,0.00,-1.0,5.5,"21:20:48",1
"17/12/17","21:40",0.0,0.2,88.6,1016.1,309.6,1.3,2.2,318.8,0.00,-1.4,5.4,"21:37:20",1
"17/12/17","21:50",0.0,0.0,90.1,1016.1,313.0,1.2,2.0,324.0,0.00,-1.4,5.4,"21:46:24",1
"17/12/17","22:00",0.0,-0.3,91.1,1016.1,313.7,1.0,1.4,311.1,0.00,-1.5,5.5,"21:54:08",1
"17/12/17","22:10",0.0,-0.2,91.8,1016.4,338.3,1.2,2.1,331.7,0.00,-1.3,5.3,"22:08:54",1
"17/12/17","22:20",0.0,-0.3,92.2,1016.6,310.3,1.3,1.8,316.1,0.00,-1.4,5.2,"22:17:38",1
"17/12/17","22:30",0.0,-0.2,93.1,1016.4,286.9,1.0,1.7,323.7,0.00,-1.1,5.4,"22:21:20",1
"17/12/17","22:40",0.0,-0.2,93.1,1016.4,317.0,1.1,1.8,334.9,0.00,-1.1,5.3,"22:39:44",1
"17/12/17","22:50",0.0,-0.1,92.8,1016.6,334.7,1.7,2.4,337.3,0.00,-1.1,5.2,"22:49:12",1
"17/12/17","23:00",0.0,-0.3,92.9,1016.6,324.1,1.2,2.0,336.1,0.00,-1.3,5.1,"22:50:16",1
"17/12/17","23:10",0.0,-0.6,93.4,1016.6,306.9,0.7,1.6,324.6,0.00,-1.5,5.2,"23:08:40",1
"17/12/17","23:20",0.0,-0.9,93.4,1016.8,310.8,0.8,1.6,335.5,0.00,-1.8,5.0,"23:14:24",1
"17/12/17","23:30",0.0,-1.1,94.1,1016.4,309.2,1.1,1.4,312.8,0.00,-1.9,4.9,"23:27:52",1
"17/12/17","23:40",0.0,-1.4,94.8,1016.1,309.5,1.5,1.8,313.4,0.00,-2.1,5.0,"23:33:12",1
"17/12/17","23:50",0.0,-1.3,95.6,1016.1,309.2,1.1,1.8,322.1,0.00,-1.9,4.8,"23:41:20",1
"17/12/17","24:00",0.0,-1.4,94.8,1016.4,299.4,1.3,2.2,308.1,0.00,-2.1,4.9,"23:59:36",1
